Home   Weather   Sharjah   Past weeks
Flag for United Arab Emirates

Past Weather in Sharjah, Sharjah, United Arab Emirates — Yesterday and Last 2 Weeks

Now
99 °F

Clear.


Feels Like: 108 °F
Forecast: 101 / 90 °F
Wind: 12 mph from East

Location: Sharjah International Airport

Current Time: Jul 23, 2019 at 9:53:02 pm

Latest Report: Jul 23, 2019 at 9:00 pm


Visibility: 10 mi

Pressure: 29.45 "Hg

Humidity: 42%

Dew Point: 72 °F

Location of SharjahLocation

Past Weather in Sharjah — Graph

°F

Sharjah Temperature Yesterday

Maximum temperature yesterday: 106 °F (at 12:00 pm)
Minimum temperature yesterday: 91 °F (at 5:00 am)
Average temperature yesterday: 98 °F

High & Low Weather Summary for the Past Weeks

 TemperatureHumidityPressure
High109 °F (Jul 13, 1:00 pm)80% (Jul 19, 1:00 am)29.53 "Hg (Jul 19, 1:00 am)
Low81 °F (Jul 11, 5:00 am)9% (Jul 17, 1:00 pm)29.30 "Hg (Jul 9, 3:00 pm)
Average96 °F52%29.42 "Hg
* Reported Jul 8 8:00 pm — Jul 23 8:00 pm, Sharjah. Weather by CustomWeather, © 2019

Note: Actual official high and low records may vary slightly from our data, if they occured in-between our weather recording intervals... More about our weather records

Advertising

Sharjah Weather History for the Previous 24 Hours

Scroll right to see more
 ConditionsComfort  
Time TempWeatherWind HumidityBarometerVisibility
8:00 pm
Tue, Jul 23
97 °FClear.8 mph50%29.42 "Hg5 mi
7:00 pm99 °FClear.10 mph47%29.39 "Hg5 mi
6:00 pm100 °FClear.12 mph47%29.39 "Hg6 mi
5:00 pm100 °FClear.12 mph50%29.39 "Hg5 mi
4:00 pm102 °FClear.12 mph45%29.39 "Hg5 mi
3:00 pm102 °FClear.13 mph42%29.42 "Hg5 mi
2:00 pm104 °FClear.14 mph38%29.42 "Hg4 mi
1:00 pm106 °FClear.14 mph36%29.42 "Hg5 mi
12:00 pm104 °FSunny.6 mph33%29.45 "Hg10 mi
11:00 am104 °FClear.9 mph31%29.45 "Hg6 mi
10:00 am102 °FClear.15 mph29%29.45 "Hg6 mi
9:00 am97 °FClear.13 mph50%29.45 "Hg6 mi
8:00 am95 °FClear.17 mph56%29.45 "Hg5 mi
7:00 am93 °FClear.16 mph59%29.45 "Hg4 mi
6:00 am91 °FSunny.13 mph63%29.42 "Hg10 mi
5:00 am91 °FClear.7 mph63%29.42 "Hg10 mi
4:00 am90 °FClear.3 mph71%29.39 "Hg5 mi
3:00 am91 °FClear.3 mph67%29.39 "Hg5 mi
2:00 am91 °FClear.5 mph67%29.39 "Hg4 mi
1:00 am91 °FClear.3 mph67%29.39 "Hg4 mi
12:00 am93 °FClear.3 mph63%29.42 "Hg4 mi
11:00 pm
Mon, Jul 22
93 °FClear.2 mph63%29.42 "Hg4 mi
10:00 pm95 °FClear.6 mph63%29.42 "Hg4 mi
9:00 pm95 °FClear.6 mph67%29.42 "Hg4 mi
Weather by CustomWeather, © 2019

See weather overview